PulseSat

PulseSat

COSMOS 2475 (743)

Last updated on Jan. 18, 2019, 3 a.m. UTC

1 37869U 11064C   19017.61458032  .00000064  00000-0  00000+0 0  9991
2 37869  64.5126 164.6845 0018278 264.6416  80.4146  2.13102003 56071
UTC
Height (km)
Latitude
Longitude
Inclination
Orbital Period

Next 30 passes for location: Hong Kong

Rise time Rise Azimuth (degrees) Set time Set Azimuth (degrees) Duration Max altitude (degrees)

No matching passes for this satellites

PulseSat

PulseSat is the new satellites software and hardware trackering solution by Pulsely.
Satellite Two Line Element Set source: US Air Force Space Command

Download PulseSat for iOS
© 2017 Pulsely Limited